Flag for U.S.A. Weather past 2 weeks in Post Falls, Idaho, U.S.A.

19 °F


Feels Like: 10 °F
Forecast: 14 / 28 °F
Wind: 7 mph from Northeast

Location: Coeur d'Alene Weather Reporting System

Current Time: Nov 28, 2015 at 10:11:44 PM

Latest Report: Nov 28, 2015 at 9:15 PM

Visibility: 10 mi

Pressure: 30.26 "Hg (27.79 "Hg at 664m altitude)

Humidity: 79%

Dew point: 14 °F

Location of Post FallsLocation

Historic Weather in Post Falls — Graph


Post Falls temperature yesterday

Maximum temperature yesterday: 32 °F (at 1:15 PM)
Minimum temperature yesterday: 19 °F (at 12:55 AM)
Average temperature yesterday: 24 °F

Past Weeks' High & Low Weather Summary

High55 °F (Nov 15, 1:55 PM)93% (Nov 14, 10:35 PM)30.53 "Hg (Nov 14, 10:35 PM)
Low18 °F (Nov 28, 2:35 AM)11% (Nov 23, 1:35 PM)29.36 "Hg (Nov 17, 4:55 PM)
Average32 °F73%30.07 "Hg
* Reported Nov 13 8:55 PM — Nov 28 8:55 PM, Post Falls, Weather by CustomWeather, © 2015

Note: Actual official high and low records may vary slightly from our data, if they occured in-between our weather recording intervals... More about our weather records


Post Falls weather history for previous 24 hours

Time TempWeatherWind HumidityBarometerVisibility
8:55 PM
Sat, Nov 28
19 °FClear.9 mph86%30.26 "Hg10 mi
8:35 PM19 °FClear.6 mph73%30.26 "Hg10 mi
7:55 PM19 °FClear.8 mph79%30.25 "Hg10 mi
7:15 PM21 °FClear.8 mph80%30.26 "Hg10 mi
6:55 PM21 °FClear.8 mph80%30.25 "Hg10 mi
6:35 PM23 °FClear.9 mph74%30.25 "Hg10 mi
6:15 PM23 °FClear.10 mph74%30.25 "Hg10 mi
5:55 PM21 °FClear.6 mph68%30.25 "Hg10 mi
5:35 PM25 °FClear.7 mph74%30.25 "Hg10 mi
5:15 PM25 °FClear.7 mph63%30.25 "Hg10 mi
4:55 PM25 °FClear.10 mph69%30.25 "Hg10 mi
3:55 PM28 °FSunny.12 mph64%30.25 "Hg10 mi
3:15 PM30 °FSunny.13 mph59%30.25 "Hg10 mi
2:55 PM30 °FSunny.12 mph59%30.25 "Hg10 mi
2:15 PM30 °FSunny.13 mph59%30.26 "Hg10 mi
1:55 PM30 °FSunny.14 mph64%30.26 "Hg10 mi
1:35 PM30 °FSunny.14 mph64%30.27 "Hg10 mi
12:35 PM30 °FSunny.16 mph64%30.29 "Hg10 mi
12:15 PM30 °FSunny.15 mph64%30.30 "Hg10 mi
11:55 AM28 °FSunny.12 mph69%30.31 "Hg10 mi
11:35 AM28 °FSunny.13 mph69%30.32 "Hg10 mi
11:15 AM28 °FSunny.15 mph69%30.33 "Hg10 mi
10:55 AM27 °FSunny.10 mph74%30.34 "Hg10 mi
10:35 AM27 °FSunny.14 mph69%30.34 "Hg10 mi
10:15 AM27 °FSunny.15 mph69%30.35 "Hg10 mi
9:55 AM25 °FSunny.14 mph74%30.35 "Hg10 mi
9:35 AM25 °FPassing clouds.15 mph74%30.35 "Hg10 mi
9:15 AM25 °FPassing clouds.10 mph74%30.34 "Hg10 mi
8:55 AM23 °FPassing clouds.12 mph80%30.34 "Hg10 mi
8:35 AM21 °FScattered clouds.9 mph80%30.34 "Hg10 mi
7:55 AM19 °FPassing clouds.7 mph86%30.35 "Hg10 mi
7:35 AM18 °FScattered clouds.8 mph79%30.35 "Hg10 mi
7:15 AM18 °FScattered clouds.8 mph79%30.34 "Hg10 mi
6:55 AM18 °FClear.8 mph79%30.35 "Hg10 mi
6:35 AM18 °FClear.9 mph79%30.35 "Hg10 mi
6:15 AM19 °FClear.12 mph86%30.35 "Hg10 mi
5:55 AM19 °FClear.9 mph86%30.36 "Hg10 mi
5:35 AM18 °FPassing clouds.10 mph79%30.36 "Hg10 mi
5:15 AM19 °FPassing clouds.8 mph79%30.35 "Hg10 mi
4:55 AM18 °FPassing clouds.9 mph86%30.36 "Hg10 mi
4:35 AM18 °FClear.10 mph86%30.36 "Hg10 mi
4:15 AM19 °FClear.10 mph79%30.36 "Hg10 mi
3:55 AM19 °FPassing clouds.10 mph79%30.36 "Hg10 mi
3:35 AM19 °FClear.10 mph73%30.36 "Hg10 mi
3:15 AM19 °FClear.10 mph79%30.36 "Hg10 mi
2:55 AM19 °FClear.10 mph79%30.36 "Hg10 mi
2:35 AM18 °FClear.10 mph86%30.36 "Hg10 mi
1:55 AM19 °FClear.7 mph79%30.35 "Hg10 mi
1:35 AM19 °FClear.10 mph86%30.35 "Hg10 mi
1:15 AM19 °FClear.8 mph79%30.36 "Hg10 mi
12:55 AM19 °FClear.9 mph79%30.36 "Hg10 mi
12:35 AM19 °FClear.9 mph86%30.37 "Hg10 mi
12:15 AM19 °FClear.9 mph86%30.37 "Hg10 mi
11:55 PM
Fri, Nov 27
19 °FClear.9 mph86%30.37 "Hg10 mi
10:35 PM21 °FClear.7 mph80%30.37 "Hg10 mi
10:15 PM19 °FClear.9 mph86%30.36 "Hg10 mi
Weather by CustomWeather, © 2015

See weather overviewHow to use our weather pages